Preview of NWS' New Version of Forecast
This preview is not operational and should not be used for support decisions.

Regional Weather Roundup (RWR)

Issued by National Weather Service (NWS)

                            
000
ASUS43 KDMX 191201
RWRIA 

WEATHER ROUNDUP FOR IOWA
NATIONAL WEATHER SERVICE DES MOINES IA
600 AM CST TUE FEB 19 2019

NOTE: "FAIR" INDICATES FEW OR NO CLOUDS BELOW 12,000 FEET WITH NO
SIGNIFICANT WEATHER AND/OR OBSTRUCTIONS TO VISIBILITY.

* - THESE STATIONS ARE NOT NWS STATIONS...THUS NOT UNDER NWS
QUALITY CONTROL.  THEY ALSO DO NOT REPORT WEATHER SUCH 
AS PRECIPITATION OR FOG.  

IAZ001>003-012>014-020>022-031>034-043>046-191300-
   NORTHWEST IOWA
  
CITY           SKY/WX    TMP DP  RH WIND       PRES   REMARKS
CARROLL *      CLOUDY    -8  -9  92 CALM      30.54R FOG              
CHEROKEE *     CLOUDY   -11 -15  85 CALM      30.53F FOG              
DENISON *      CLOUDY    -4  -8  84 NE5       30.54S WCI -15          
LE MARS *      CLOUDY    -8 -11  84 CALM      30.53S                  
ORANGE CITY *  LGT SNOW  -2  -6  84 CALM      30.48F                  
SHELDON *      FOG       -9 -11  92 E5        30.49S VSB 1/4 WCI -21  
SIOUX CITY     CLOUDY     0  -4  83 CALM      30.53F                  
6HR MIN TEMP:  -8; 6HR MAX TEMP:   3;                                

SPENCER        HAZE      -8 -16  67 CALM      30.52F VSB 1/4          
6HR MIN TEMP: -10; 6HR MAX TEMP:  -7;                                

STORM LAKE *   CLOUDY     0  -2  92 E5        30.49S WCI -10          
$$
 
IAZ055>058-069>071-079>083-090>094-191300-
   SOUTHWEST IOWA
  
CITY           SKY/WX    TMP DP  RH WIND       PRES   REMARKS
ATLANTIC *     CLOUDY    -9 -11  92 N3        30.54F                  
AUDUBON *      CLOUDY    -9 -15  77 CALM      30.52F                  
CLARINDA *     CLOUDY     0  -4  85 N6        30.57S WCI -12          
COUNCIL BLFS * PTCLDY     3   5 100 E5        30.51F WCI  -6          
CRESTON *      CLOUDY     3   1  92 NE9       30.53R WCI -11          
HARLAN  *      CLOUDY    -8  -9  92 CALM      30.53F                  
LAMONI         CLOUDY     5   2  87 NE7       30.52S WCI  -7          
6HR MIN TEMP:   4; 6HR MAX TEMP:   8;                                

RED OAK *      CLOUDY    -6  -8  92 N7        30.55S WCI -20          
SHENANDOAH *   CLOUDY    -2  -4  92 NE7       30.55S WCI -16          
$$
 
IAZ047>049-059>061-072>074-084-191300-
   CENTRAL IOWA
  
CITY           SKY/WX    TMP DP  RH WIND       PRES   REMARKS
AMES           CLOUDY    -9 -12  87 CALM      30.58S                  
6HR MIN TEMP: -13; 6HR MAX TEMP:  -6;                                

ANKENY *       FOG       -6  -9  84 N3        30.61R VSB 1/4          
BOONE *        FOG       -6  -9  84 NE3       30.55R VSB<1/4          
CHARITON *     CLOUDY     1   0  92 N7        30.55S WCI -11          
DES MOINES     CLOUDY     1  -4  79 NE6       30.56F WCI -10          
6HR MIN TEMP:  -2; 6HR MAX TEMP:   4;                                

GRINNELL*      PTCLDY    -3  -6  87 CALM      30.59R                  
KNOXVILLE *    CLOUDY     3   3 100 N3        30.56F                  
MARSHALLTOWN   CLOUDY   -15 -18  86 CALM      30.58R                  
6HR MIN TEMP: -15; 6HR MAX TEMP:  -4;                                

NEWTON *         N/A     -4  -8  84 CALM      30.58S                  
PELLA *        CLOUDY    -1  -5  84 CALM      30.59F                  
$$
 
IAZ004>006-015-016-023>025-035-036-191300-
   NORTH CENTRAL IOWA
  
CITY           SKY/WX    TMP DP  RH WIND       PRES   REMARKS
ALGONA *       ICE FOG  -13 -17  84 SW3       30.52S VSB<1/4          
CLARION *      HAZE     -17 -20  83 NE3       30.55F VSB<1/4          
ESTHERVILLE    ICE FOG  -12 -14  90 CALM      30.52S VSB 1/4          
6HR MIN TEMP: -16; 6HR MAX TEMP: -11;                                

FORT DODGE *   FOG      -13 -17  82 E3        30.54F VSB 3/4          
MASON CITY     CLOUDY   -11 -15  82 CALM      30.56F FOG              
6HR MIN TEMP: -12; 6HR MAX TEMP:  -6;                                

FOREST CITY *  FAIR     -13 -18  77 CALM      30.55S                  
IOWA FALLS *   HAZE     -10 -15  80 CALM      30.56F VSB 1/4          
$$

IAZ007>011-017>019-026>030-037>042-050>054-066-191300-
   NORTHEAST IOWA
  
CITY           SKY/WX    TMP DP  RH WIND       PRES   REMARKS
CEDAR RAPIDS   CLOUDY    -3  -6  87 NW3       30.59R FOG              
6HR MIN TEMP:  -7; 6HR MAX TEMP:  -2;                                

CHARLES CITY * FAIR      -8 -11  84 CALM      30.57S                  
CLINTON *      FAIR      -2  -6  83 W3        30.62R                  
DECORAH *      FAIR       0  -2  92 CALM      30.55S                  
DUBUQUE        FOG       -3  -6  87 CALM      30.56S VSB 1/2          
6HR MIN TEMP:  -3; 6HR MAX TEMP:   2;                                

OELWEIN *      FAIR      -8 -11  84 N3        30.57S                  
WATERLOO       FAIR     -13 -17  82 NW3       30.59S                  
6HR MIN TEMP: -14; 6HR MAX TEMP:  -4; 6HR PCP: TRACE;                

$$
 
IAZ064-065-067-068-078-191300-
   EAST CENTRAL IOWA
  
CITY           SKY/WX    TMP DP  RH WIND       PRES   REMARKS
DAVENPORT      FAIR       0  -4  83 CALM      30.61S FOG              
6HR MIN TEMP:  -4; 6HR MAX TEMP:   4;                                

IOWA CITY      FAIR       0  -4  83 CALM      30.63R                  
6HR MIN TEMP:  -2; 6HR MAX TEMP:   6;                                

MT. PLEASANT * CLOUDY     9   7  92 N5        30.60S WCI   0          
MUSCATINE *    FAIR       3  -2  78 CALM      30.64R                  
QUAD CITIES    FAIR       5   1  83 CALM      30.61R                  
6HR MIN TEMP:   4; 6HR MAX TEMP:   8;                                

$$
 
IAZ062-063-075>077-085>089-095>099-191300-
   SOUTHEAST IOWA
  
CITY           SKY/WX    TMP DP  RH WIND       PRES   REMARKS
BURLINGTON     CLOUDY    13   8  81 NE6       30.59F WCI   4          
6HR MIN TEMP:  10; 6HR MAX TEMP:  14;                                

FAIRFIELD *    CLOUDY     3  -2  78 N6        30.58S WCI  -8          
KEOKUK *       CLOUDY    14  12  92 CALM      30.58S                  
OSKALOOSA *    FAIR      -3  -7  84 N5        30.58F WCI -14          
OTTUMWA        CLOUDY     3   0  87 N3        30.57F FOG              
6HR MIN TEMP:  -1; 6HR MAX TEMP:   4;                                

WASHINGTON *   CLOUDY     0  -2  92 CALM      30.61S                  
$$

ABBREVIATIONS USED IN REMARKS
   TC - TEMPERATURES IN CELSIUS
  WCI - WIND CHILL INDEX
   HX - HEAT INDEX
  VSB - VISIBILITY  
$$